Year,Month,Day,Hour,Minute,Value (Times are PST for temperature in C)
2014,10,07,00,00,15.20
2014,10,07,00,01,15.20
2014,10,07,00,02,15.20
2014,10,07,00,03,15.20
2014,10,07,00,04,15.20
2014,10,07,00,05,15.20
2014,10,07,00,06,15.20
2014,10,07,00,07,15.20
2014,10,07,00,08,15.20
2014,10,07,00,09,15.20
2014,10,07,00,10,15.20
2014,10,07,00,11,15.20
2014,10,07,00,12,15.20
2014,10,07,00,13,15.20
2014,10,07,00,14,15.20
2014,10,07,00,15,15.10
2014,10,07,00,16,15.10
2014,10,07,00,17,15.10
2014,10,07,00,18,15.10
2014,10,07,00,19,15.10
2014,10,07,00,20,15.00
2014,10,07,00,21,15.00
2014,10,07,00,22,15.00
2014,10,07,00,23,15.00
2014,10,07,00,24,15.00
2014,10,07,00,25,15.00
2014,10,07,00,26,15.00
2014,10,07,00,27,15.00
2014,10,07,00,28,15.00
2014,10,07,00,29,15.00
2014,10,07,00,30,14.90
2014,10,07,00,31,14.90
2014,10,07,00,32,14.90
2014,10,07,00,33,14.90
2014,10,07,00,34,14.80
2014,10,07,00,35,14.80
2014,10,07,00,36,14.80
2014,10,07,00,37,14.80
2014,10,07,00,38,14.80
2014,10,07,00,39,14.80
2014,10,07,00,40,14.80
2014,10,07,00,41,14.80
2014,10,07,00,42,14.80
2014,10,07,00,43,14.70
2014,10,07,00,44,14.70
2014,10,07,00,45,14.70
2014,10,07,00,46,14.70
2014,10,07,00,47,14.70
2014,10,07,00,48,14.60
2014,10,07,00,49,14.60
2014,10,07,00,50,14.60
2014,10,07,00,51,14.60
2014,10,07,00,52,14.60
2014,10,07,00,53,14.60
2014,10,07,00,54,14.50
2014,10,07,00,55,14.50
2014,10,07,00,56,14.50
2014,10,07,00,57,14.50
2014,10,07,00,58,14.40
2014,10,07,00,59,14.40
2014,10,07,01,00,14.40
2014,10,07,01,01,14.40
2014,10,07,01,02,14.40
2014,10,07,01,03,14.40
2014,10,07,01,04,14.40
2014,10,07,01,05,14.40
2014,10,07,01,06,14.40
2014,10,07,01,07,14.40
2014,10,07,01,08,14.30
2014,10,07,01,09,14.30
2014,10,07,01,10,14.30
2014,10,07,01,11,14.30
2014,10,07,01,12,14.30
2014,10,07,01,13,14.30
2014,10,07,01,14,14.30
2014,10,07,01,15,14.30
2014,10,07,01,16,14.30
2014,10,07,01,17,14.30
2014,10,07,01,18,14.20
2014,10,07,01,19,14.20
2014,10,07,01,20,14.20
2014,10,07,01,21,14.20
2014,10,07,01,22,14.20
2014,10,07,01,23,14.20
2014,10,07,01,24,14.20
2014,10,07,01,25,14.20
2014,10,07,01,26,14.20
2014,10,07,01,27,14.20
2014,10,07,01,28,14.20
2014,10,07,01,29,14.20
2014,10,07,01,30,14.20
2014,10,07,01,31,14.20
2014,10,07,01,32,14.20
2014,10,07,01,33,14.20
2014,10,07,01,34,14.20
2014,10,07,01,35,14.10
2014,10,07,01,36,14.10
2014,10,07,01,37,14.10
2014,10,07,01,38,14.10
2014,10,07,01,39,14.10
2014,10,07,01,40,14.10
2014,10,07,01,41,14.10
2014,10,07,01,42,14.10
2014,10,07,01,43,14.00
2014,10,07,01,44,14.00
2014,10,07,01,45,14.00
2014,10,07,01,46,14.00
2014,10,07,01,47,13.90
2014,10,07,01,48,13.90
2014,10,07,01,49,13.90
2014,10,07,01,50,13.90
2014,10,07,01,51,13.90
2014,10,07,01,52,13.90
2014,10,07,01,53,13.90
2014,10,07,01,54,13.90
2014,10,07,01,55,13.90
2014,10,07,01,56,13.90
2014,10,07,01,57,13.90
2014,10,07,01,58,13.90
2014,10,07,01,59,13.90
2014,10,07,02,00,13.90
2014,10,07,02,01,13.80
2014,10,07,02,02,13.80
2014,10,07,02,03,13.80
2014,10,07,02,04,13.80
2014,10,07,02,05,13.80
2014,10,07,02,06,13.80
2014,10,07,02,07,13.80
2014,10,07,02,08,13.80
2014,10,07,02,09,13.80
2014,10,07,02,10,13.80
2014,10,07,02,11,13.80
2014,10,07,02,12,13.80
2014,10,07,02,13,13.80
2014,10,07,02,14,13.80
2014,10,07,02,15,13.80
2014,10,07,02,16,13.80
2014,10,07,02,17,13.80
2014,10,07,02,18,13.80
2014,10,07,02,19,13.80
2014,10,07,02,20,13.80
2014,10,07,02,21,13.70
2014,10,07,02,22,13.70
2014,10,07,02,23,13.70
2014,10,07,02,24,13.70
2014,10,07,02,25,13.70
2014,10,07,02,26,13.70
2014,10,07,02,27,13.70
2014,10,07,02,28,13.70
2014,10,07,02,29,13.70
2014,10,07,02,30,13.70
2014,10,07,02,31,13.70
2014,10,07,02,32,13.70
2014,10,07,02,33,13.70
2014,10,07,02,34,13.70
2014,10,07,02,35,13.70
2014,10,07,02,36,13.70
2014,10,07,02,37,13.60
2014,10,07,02,38,13.60
2014,10,07,02,39,13.60
2014,10,07,02,40,13.60
2014,10,07,02,41,13.60
2014,10,07,02,42,13.60
2014,10,07,02,43,13.60
2014,10,07,02,44,13.50
2014,10,07,02,45,13.50
2014,10,07,02,46,13.50
2014,10,07,02,47,13.50
2014,10,07,02,48,13.50
2014,10,07,02,49,13.40
2014,10,07,02,50,13.40
2014,10,07,02,51,13.40
2014,10,07,02,52,13.40
2014,10,07,02,53,13.40
2014,10,07,02,54,13.40
2014,10,07,02,55,13.40
2014,10,07,02,56,13.40
2014,10,07,02,57,13.40
2014,10,07,02,58,13.40
2014,10,07,02,59,13.30
2014,10,07,03,00,13.30
2014,10,07,03,01,13.30
2014,10,07,03,02,13.30
2014,10,07,03,03,13.30
2014,10,07,03,04,13.30
2014,10,07,03,05,13.30
2014,10,07,03,06,13.30
2014,10,07,03,07,13.30
2014,10,07,03,08,13.30
2014,10,07,03,09,13.30
2014,10,07,03,10,13.20
2014,10,07,03,11,13.20
2014,10,07,03,12,13.20
2014,10,07,03,13,13.20
2014,10,07,03,14,13.20
2014,10,07,03,15,13.20
2014,10,07,03,16,13.20
2014,10,07,03,17,13.20
2014,10,07,03,18,13.20
2014,10,07,03,19,13.10
2014,10,07,03,20,13.10
2014,10,07,03,21,13.10
2014,10,07,03,22,13.10
2014,10,07,03,23,13.10
2014,10,07,03,24,13.10
2014,10,07,03,25,13.10
2014,10,07,03,26,13.10
2014,10,07,03,27,13.10
2014,10,07,03,28,13.10
2014,10,07,03,29,13.10
2014,10,07,03,30,13.10
2014,10,07,03,31,13.10
2014,10,07,03,32,13.10
2014,10,07,03,33,13.10
2014,10,07,03,34,13.10
2014,10,07,03,35,13.10
2014,10,07,03,36,13.20
2014,10,07,03,37,13.20
2014,10,07,03,38,13.20
2014,10,07,03,39,13.20
2014,10,07,03,40,13.20
2014,10,07,03,41,13.20
2014,10,07,03,42,13.20
2014,10,07,03,43,13.20
2014,10,07,03,44,13.20
2014,10,07,03,45,13.20
2014,10,07,03,46,13.20
2014,10,07,03,47,13.20
2014,10,07,03,48,13.20
2014,10,07,03,49,13.20
2014,10,07,03,50,13.20
2014,10,07,03,51,13.20
2014,10,07,03,52,13.20
2014,10,07,03,53,13.10
2014,10,07,03,54,13.10
2014,10,07,03,55,13.10
2014,10,07,03,56,13.10
2014,10,07,03,57,13.10
2014,10,07,03,58,13.10
2014,10,07,03,59,13.10
2014,10,07,04,00,13.10
2014,10,07,04,01,13.10
2014,10,07,04,02,13.10
2014,10,07,04,03,13.10
2014,10,07,04,04,13.10
2014,10,07,04,05,13.10
2014,10,07,04,06,13.10
2014,10,07,04,07,13.10
2014,10,07,04,08,13.00
2014,10,07,04,09,13.00
2014,10,07,04,10,13.00
2014,10,07,04,11,13.00
2014,10,07,04,12,13.00
2014,10,07,04,13,13.00
2014,10,07,04,14,13.00
2014,10,07,04,15,12.90
2014,10,07,04,16,12.90
2014,10,07,04,17,12.90
2014,10,07,04,18,12.90
2014,10,07,04,19,12.90
2014,10,07,04,20,12.90
2014,10,07,04,21,12.90
2014,10,07,04,22,12.90
2014,10,07,04,23,12.90
2014,10,07,04,24,12.90
2014,10,07,04,25,12.90
2014,10,07,04,26,12.90
2014,10,07,04,27,12.90
2014,10,07,04,28,12.90
2014,10,07,04,29,12.90
2014,10,07,04,30,12.90
2014,10,07,04,31,12.90
2014,10,07,04,32,12.90
2014,10,07,04,33,12.90
2014,10,07,04,34,12.90
2014,10,07,04,35,12.80
2014,10,07,04,36,12.80
2014,10,07,04,37,12.80
2014,10,07,04,38,12.80
2014,10,07,04,39,12.80
2014,10,07,04,40,12.80
2014,10,07,04,41,12.80
2014,10,07,04,42,12.80
2014,10,07,04,43,12.80
2014,10,07,04,44,12.80
2014,10,07,04,45,12.80
2014,10,07,04,46,12.80
2014,10,07,04,47,12.80
2014,10,07,04,48,12.80
2014,10,07,04,49,12.80
2014,10,07,04,50,12.80
2014,10,07,04,51,12.80
2014,10,07,04,52,12.70
2014,10,07,04,53,12.70
2014,10,07,04,54,12.70
2014,10,07,04,55,12.70
2014,10,07,04,56,12.70
2014,10,07,04,57,12.70
2014,10,07,04,58,12.70
2014,10,07,04,59,12.70
2014,10,07,05,00,12.70
2014,10,07,05,01,12.70
2014,10,07,05,02,12.70
2014,10,07,05,03,12.70
2014,10,07,05,04,12.70
2014,10,07,05,05,12.70
2014,10,07,05,06,12.70
2014,10,07,05,07,12.70
2014,10,07,05,08,12.70
2014,10,07,05,09,12.70
2014,10,07,05,10,12.70
2014,10,07,05,11,12.70
2014,10,07,05,12,12.70
2014,10,07,05,13,12.80
2014,10,07,05,14,12.80
2014,10,07,05,15,12.80
2014,10,07,05,16,12.80
2014,10,07,05,17,12.80
2014,10,07,05,18,12.80
2014,10,07,05,19,12.80
2014,10,07,05,20,12.70
2014,10,07,05,21,12.70
2014,10,07,05,22,12.70
2014,10,07,05,23,12.70
2014,10,07,05,24,12.70
2014,10,07,05,25,12.70
2014,10,07,05,26,12.70
2014,10,07,05,27,12.60
2014,10,07,05,28,12.60
2014,10,07,05,29,12.60
2014,10,07,05,30,12.60
2014,10,07,05,31,12.60
2014,10,07,05,32,12.60
2014,10,07,05,33,12.50
2014,10,07,05,34,12.50
2014,10,07,05,35,12.50
2014,10,07,05,36,12.40
2014,10,07,05,37,12.40
2014,10,07,05,38,12.40
2014,10,07,05,39,12.40
2014,10,07,05,40,12.40
2014,10,07,05,41,12.40
2014,10,07,05,42,12.40
2014,10,07,05,43,12.40
2014,10,07,05,44,12.40
2014,10,07,05,45,12.40
2014,10,07,05,46,12.40
2014,10,07,05,47,12.40
2014,10,07,05,48,12.40
2014,10,07,05,49,12.40
2014,10,07,05,50,12.40
2014,10,07,05,51,12.40
2014,10,07,05,52,12.40
2014,10,07,05,53,12.40
2014,10,07,05,54,12.40
2014,10,07,05,55,12.30
2014,10,07,05,56,12.30
2014,10,07,05,57,12.30
2014,10,07,05,58,12.30
2014,10,07,05,59,12.30
2014,10,07,06,00,12.30
2014,10,07,06,01,12.30
2014,10,07,06,02,12.30
2014,10,07,06,03,12.30
2014,10,07,06,04,12.30
2014,10,07,06,05,12.30
2014,10,07,06,06,12.30
2014,10,07,06,07,12.30
2014,10,07,06,08,12.30
2014,10,07,06,09,12.30
2014,10,07,06,10,12.30
2014,10,07,06,11,12.30
2014,10,07,06,12,12.30
2014,10,07,06,13,12.30
2014,10,07,06,14,12.30
2014,10,07,06,15,12.30
2014,10,07,06,16,12.30
2014,10,07,06,17,12.20
2014,10,07,06,18,12.20
2014,10,07,06,19,12.20
2014,10,07,06,20,12.20
2014,10,07,06,21,12.20
2014,10,07,06,22,12.20
2014,10,07,06,23,12.20
2014,10,07,06,24,12.20
2014,10,07,06,25,12.20
2014,10,07,06,26,12.20
2014,10,07,06,27,12.20
2014,10,07,06,28,12.20
2014,10,07,06,29,12.20
2014,10,07,06,30,12.20
2014,10,07,06,31,12.20
2014,10,07,06,32,12.20
2014,10,07,06,33,12.10
2014,10,07,06,34,12.10
2014,10,07,06,35,12.10
2014,10,07,06,36,12.10
2014,10,07,06,37,12.10
2014,10,07,06,38,12.10
2014,10,07,06,39,12.20
2014,10,07,06,40,12.20
2014,10,07,06,41,12.20
2014,10,07,06,42,12.20
2014,10,07,06,43,12.20
2014,10,07,06,44,12.20
2014,10,07,06,45,12.20
2014,10,07,06,46,12.20
2014,10,07,06,47,12.20
2014,10,07,06,48,12.20
2014,10,07,06,49,12.20
2014,10,07,06,50,12.20
2014,10,07,06,51,12.20
2014,10,07,06,52,12.20
2014,10,07,06,53,12.20
2014,10,07,06,54,12.20
2014,10,07,06,55,12.20
2014,10,07,06,56,12.20
2014,10,07,06,57,12.20
2014,10,07,06,58,12.20
2014,10,07,06,59,12.20
2014,10,07,07,00,12.20
2014,10,07,07,01,12.20
2014,10,07,07,02,12.20
2014,10,07,07,03,12.20
2014,10,07,07,04,12.10
2014,10,07,07,05,12.10
2014,10,07,07,06,12.10
2014,10,07,07,07,12.10
2014,10,07,07,08,12.10
2014,10,07,07,09,12.10
2014,10,07,07,10,12.10
2014,10,07,07,11,12.10
2014,10,07,07,12,12.10
2014,10,07,07,13,12.10
2014,10,07,07,14,12.10
2014,10,07,07,15,12.10
2014,10,07,07,16,12.10
2014,10,07,07,17,12.10
2014,10,07,07,18,12.10
2014,10,07,07,19,12.10
2014,10,07,07,20,12.10
2014,10,07,07,21,12.10
2014,10,07,07,22,12.10
2014,10,07,07,23,12.10
2014,10,07,07,24,12.10
2014,10,07,07,25,12.10
2014,10,07,07,26,12.20
2014,10,07,07,27,12.20
2014,10,07,07,28,12.10
2014,10,07,07,29,12.10
2014,10,07,07,30,12.10
2014,10,07,07,31,12.10
2014,10,07,07,32,12.10
2014,10,07,07,33,12.10
2014,10,07,07,34,12.10
2014,10,07,07,35,12.10
2014,10,07,07,36,12.10
2014,10,07,07,37,12.10
2014,10,07,07,38,12.10
2014,10,07,07,39,12.10
2014,10,07,07,40,12.10
2014,10,07,07,41,12.10
2014,10,07,07,42,12.10
2014,10,07,07,43,12.10
2014,10,07,07,44,12.10
2014,10,07,07,45,12.10
2014,10,07,07,46,12.10
2014,10,07,07,47,12.10
2014,10,07,07,48,12.10
2014,10,07,07,49,12.10
2014,10,07,07,50,12.10
2014,10,07,07,51,12.10
2014,10,07,07,52,12.20
2014,10,07,07,53,12.20
2014,10,07,07,54,12.20
2014,10,07,07,55,12.20
2014,10,07,07,56,12.20
2014,10,07,07,57,12.20
2014,10,07,07,58,12.20
2014,10,07,07,59,12.30
2014,10,07,08,00,12.30
2014,10,07,08,01,12.30
2014,10,07,08,02,12.40
2014,10,07,08,03,12.40
2014,10,07,08,04,12.50
2014,10,07,08,05,12.50
2014,10,07,08,06,12.50
2014,10,07,08,07,12.60
2014,10,07,08,08,12.60
2014,10,07,08,09,12.60
2014,10,07,08,10,12.60
2014,10,07,08,11,12.70
2014,10,07,08,12,12.70
2014,10,07,08,13,12.70
2014,10,07,08,14,12.80
2014,10,07,08,15,12.80
2014,10,07,08,16,12.80
2014,10,07,08,17,12.80
2014,10,07,08,18,12.90
2014,10,07,08,19,12.90
2014,10,07,08,20,12.90
2014,10,07,08,21,12.90
2014,10,07,08,22,13.00
2014,10,07,08,23,13.00
2014,10,07,08,24,13.10
2014,10,07,08,25,13.10
2014,10,07,08,26,13.20
2014,10,07,08,27,13.20
2014,10,07,08,28,13.30
2014,10,07,08,29,13.30
2014,10,07,08,30,13.40
2014,10,07,08,31,13.40
2014,10,07,08,32,13.50
2014,10,07,08,33,13.50
2014,10,07,08,34,13.60
2014,10,07,08,35,13.60
2014,10,07,08,36,13.70
2014,10,07,08,37,13.80
2014,10,07,08,38,13.80
2014,10,07,08,39,13.90
2014,10,07,08,40,13.90
2014,10,07,08,41,14.00
2014,10,07,08,42,14.00
2014,10,07,08,43,14.10
2014,10,07,08,44,14.10
2014,10,07,08,45,14.10
2014,10,07,08,46,14.20
2014,10,07,08,47,14.20
2014,10,07,08,48,14.20
2014,10,07,08,49,14.20
2014,10,07,08,50,14.20
2014,10,07,08,51,14.30
2014,10,07,08,52,14.30
2014,10,07,08,53,14.30
2014,10,07,08,54,14.30
2014,10,07,08,55,14.40
2014,10,07,08,56,14.40
2014,10,07,08,57,14.40
2014,10,07,08,58,14.40
2014,10,07,08,59,14.40
2014,10,07,09,00,14.40
2014,10,07,09,01,14.50
2014,10,07,09,02,14.50
2014,10,07,09,03,14.50
2014,10,07,09,04,14.50
2014,10,07,09,05,14.60
2014,10,07,09,06,14.60
2014,10,07,09,07,14.60
2014,10,07,09,08,14.70
2014,10,07,09,09,14.70
2014,10,07,09,10,14.70
2014,10,07,09,11,14.80
2014,10,07,09,12,14.80
2014,10,07,09,13,14.80
2014,10,07,09,14,14.90
2014,10,07,09,15,15.00
2014,10,07,09,16,15.00
2014,10,07,09,17,15.00
2014,10,07,09,18,15.00
2014,10,07,09,19,15.00
2014,10,07,09,20,15.00
2014,10,07,09,21,15.10
2014,10,07,09,22,15.20
2014,10,07,09,23,15.20
2014,10,07,09,24,15.20
2014,10,07,09,25,15.30
2014,10,07,09,26,15.30
2014,10,07,09,27,15.30
2014,10,07,09,28,15.40
2014,10,07,09,29,15.40
2014,10,07,09,30,15.50
2014,10,07,09,31,15.50
2014,10,07,09,32,15.60
2014,10,07,09,33,15.60
2014,10,07,09,34,15.60
2014,10,07,09,35,15.70
2014,10,07,09,36,15.70
2014,10,07,09,37,15.80
2014,10,07,09,38,15.80
2014,10,07,09,39,15.80
2014,10,07,09,40,15.90
2014,10,07,09,41,15.90
2014,10,07,09,42,16.00
2014,10,07,09,43,16.00
2014,10,07,09,44,16.10
2014,10,07,09,45,16.10
2014,10,07,09,46,16.10
2014,10,07,09,47,16.10
2014,10,07,09,48,16.10
2014,10,07,09,49,16.10
2014,10,07,09,50,16.20
2014,10,07,09,51,16.20
2014,10,07,09,52,16.20
2014,10,07,09,53,16.30
2014,10,07,09,54,16.30
2014,10,07,09,55,16.30
2014,10,07,09,56,16.40
2014,10,07,09,57,16.40
2014,10,07,09,58,16.40
2014,10,07,09,59,16.40
2014,10,07,10,00,16.40
2014,10,07,10,01,16.40
2014,10,07,10,02,16.40
2014,10,07,10,03,16.40
2014,10,07,10,04,16.40
2014,10,07,10,05,16.40
2014,10,07,10,06,16.40
2014,10,07,10,07,16.40
2014,10,07,10,08,16.40
2014,10,07,10,09,16.50
2014,10,07,10,10,16.50
2014,10,07,10,11,16.50
2014,10,07,10,12,16.50
2014,10,07,10,13,16.50
2014,10,07,10,14,16.50
2014,10,07,10,15,16.50
2014,10,07,10,16,16.50
2014,10,07,10,17,16.50
2014,10,07,10,18,16.50
2014,10,07,10,19,16.50
2014,10,07,10,20,16.50
2014,10,07,10,21,16.50
2014,10,07,10,22,16.50
2014,10,07,10,23,16.50
2014,10,07,10,24,16.40
2014,10,07,10,25,16.50
2014,10,07,10,26,16.50
2014,10,07,10,27,16.50
2014,10,07,10,28,16.50
2014,10,07,10,29,16.50
2014,10,07,10,30,16.60
2014,10,07,10,31,16.60
2014,10,07,10,32,16.60
2014,10,07,10,33,16.60
2014,10,07,10,34,16.70
2014,10,07,10,35,16.70
2014,10,07,10,36,16.80
2014,10,07,10,37,16.80
2014,10,07,10,38,16.80
2014,10,07,10,39,16.80
2014,10,07,10,40,16.90
2014,10,07,10,41,16.90
2014,10,07,10,42,16.90
2014,10,07,10,43,16.90
2014,10,07,10,44,17.00
2014,10,07,10,45,17.00
2014,10,07,10,46,17.00
2014,10,07,10,47,17.10
2014,10,07,10,48,17.20
2014,10,07,10,49,17.20
2014,10,07,10,50,17.20
2014,10,07,10,51,17.30
2014,10,07,10,52,17.30
2014,10,07,10,53,17.30
2014,10,07,10,54,17.30
2014,10,07,10,55,17.30
2014,10,07,10,56,17.30
2014,10,07,10,57,17.30
2014,10,07,10,58,17.30
2014,10,07,10,59,17.30
2014,10,07,11,00,17.30
2014,10,07,11,01,17.40
2014,10,07,11,02,17.40
2014,10,07,11,03,17.40
2014,10,07,11,04,17.40
2014,10,07,11,05,17.40
2014,10,07,11,06,17.30
2014,10,07,11,07,17.30
2014,10,07,11,08,17.20
2014,10,07,11,09,17.20
2014,10,07,11,10,17.20
2014,10,07,11,11,17.20
2014,10,07,11,12,17.20
2014,10,07,11,13,17.20
2014,10,07,11,14,17.20
2014,10,07,11,15,17.20
2014,10,07,11,16,17.20
2014,10,07,11,17,17.20
2014,10,07,11,18,17.20
2014,10,07,11,19,17.20
2014,10,07,11,20,17.20
2014,10,07,11,21,17.20
2014,10,07,11,22,17.20
2014,10,07,11,23,17.20
2014,10,07,11,24,17.30
2014,10,07,11,25,17.30
2014,10,07,11,26,17.30
2014,10,07,11,27,17.40
2014,10,07,11,28,17.40
2014,10,07,11,29,17.50
2014,10,07,11,30,17.50
2014,10,07,11,31,17.60
2014,10,07,11,32,17.70
2014,10,07,11,33,17.70
2014,10,07,11,34,17.80
2014,10,07,11,35,17.90
2014,10,07,11,36,17.90
2014,10,07,11,37,18.00
2014,10,07,11,38,18.10
2014,10,07,11,39,18.10
2014,10,07,11,40,18.20
2014,10,07,11,41,18.20
2014,10,07,11,42,18.20
2014,10,07,11,43,18.30
2014,10,07,11,44,18.30
2014,10,07,11,45,18.30
2014,10,07,11,46,18.30
2014,10,07,11,47,18.30
2014,10,07,11,48,18.40
2014,10,07,11,49,18.40
2014,10,07,11,50,18.50
2014,10,07,11,51,18.50
2014,10,07,11,52,18.50
2014,10,07,11,53,18.60
2014,10,07,11,54,18.60
2014,10,07,11,55,18.70
2014,10,07,11,56,18.70
2014,10,07,11,57,18.70
2014,10,07,11,58,18.80
2014,10,07,11,59,18.80
2014,10,07,12,00,18.80
2014,10,07,12,01,18.80
2014,10,07,12,02,18.80
2014,10,07,12,03,18.80
2014,10,07,12,04,18.80
2014,10,07,12,05,18.80
2014,10,07,12,06,18.90
2014,10,07,12,07,18.90
2014,10,07,12,08,19.00
2014,10,07,12,09,19.10
2014,10,07,12,10,19.10
2014,10,07,12,11,19.20
2014,10,07,12,12,19.20
2014,10,07,12,13,19.20
2014,10,07,12,14,19.10
2014,10,07,12,15,19.10
2014,10,07,12,16,19.10
2014,10,07,12,17,19.10
2014,10,07,12,18,19.00
2014,10,07,12,19,19.00
2014,10,07,12,20,19.00
2014,10,07,12,21,19.10
2014,10,07,12,22,19.10
2014,10,07,12,23,19.10
2014,10,07,12,24,19.20
2014,10,07,12,25,19.20
2014,10,07,12,26,19.30
2014,10,07,12,27,19.40
2014,10,07,12,28,19.40
2014,10,07,12,29,19.50
2014,10,07,12,30,19.50
2014,10,07,12,31,19.60
2014,10,07,12,32,19.60
2014,10,07,12,33,19.60
2014,10,07,12,34,19.60
2014,10,07,12,35,19.50
2014,10,07,12,36,19.50
2014,10,07,12,37,19.40
2014,10,07,12,38,19.40
2014,10,07,12,39,19.40
2014,10,07,12,40,19.40
2014,10,07,12,41,19.40
2014,10,07,12,42,19.40
2014,10,07,12,43,19.40
2014,10,07,12,44,19.30
2014,10,07,12,45,19.30
2014,10,07,12,46,19.30
2014,10,07,12,47,19.20
2014,10,07,12,48,19.20
2014,10,07,12,49,19.20
2014,10,07,12,50,19.10
2014,10,07,12,51,19.00
2014,10,07,12,52,18.90
2014,10,07,12,53,18.80
2014,10,07,12,54,18.70
2014,10,07,12,55,18.60
2014,10,07,12,56,18.50
2014,10,07,12,57,18.40
2014,10,07,12,58,18.30
2014,10,07,12,59,18.20
2014,10,07,13,00,18.10
2014,10,07,13,01,18.00
2014,10,07,13,02,18.00
2014,10,07,13,03,17.90
2014,10,07,13,04,17.90
2014,10,07,13,05,17.80
2014,10,07,13,06,17.80
2014,10,07,13,07,17.90
2014,10,07,13,08,17.90
2014,10,07,13,09,17.90
2014,10,07,13,10,17.90
2014,10,07,13,11,17.90
2014,10,07,13,12,17.90
2014,10,07,13,13,17.90
2014,10,07,13,14,17.90
2014,10,07,13,15,17.80
2014,10,07,13,16,17.70
2014,10,07,13,17,17.70
2014,10,07,13,18,17.60
2014,10,07,13,19,17.60
2014,10,07,13,20,17.50
2014,10,07,13,21,17.50
2014,10,07,13,22,17.40
2014,10,07,13,23,17.40
2014,10,07,13,24,17.50
2014,10,07,13,25,17.50
2014,10,07,13,26,17.60
2014,10,07,13,27,17.60
2014,10,07,13,28,17.60
2014,10,07,13,29,17.70
2014,10,07,13,30,17.70
2014,10,07,13,31,17.70
2014,10,07,13,32,17.80
2014,10,07,13,33,17.80
2014,10,07,13,34,17.90
2014,10,07,13,35,17.90
2014,10,07,13,36,17.90
2014,10,07,13,37,18.00
2014,10,07,13,38,18.00
2014,10,07,13,39,18.10
2014,10,07,13,40,18.10
2014,10,07,13,41,18.10
2014,10,07,13,42,18.10
2014,10,07,13,43,18.10
2014,10,07,13,44,18.10
2014,10,07,13,45,18.10
2014,10,07,13,46,18.10
2014,10,07,13,47,18.00
2014,10,07,13,48,18.00
2014,10,07,13,49,18.00
2014,10,07,13,50,17.90
2014,10,07,13,51,17.90
2014,10,07,13,52,17.90
2014,10,07,13,53,17.90
2014,10,07,13,54,17.90
2014,10,07,13,55,17.90
2014,10,07,13,56,18.00
2014,10,07,13,57,18.00
2014,10,07,13,58,18.10
2014,10,07,13,59,18.20
2014,10,07,14,00,18.20
2014,10,07,14,01,18.30
2014,10,07,14,02,18.30
2014,10,07,14,03,18.40
2014,10,07,14,04,18.40
2014,10,07,14,05,18.50
2014,10,07,14,06,18.50
2014,10,07,14,07,18.60
2014,10,07,14,08,18.60
2014,10,07,14,09,18.70
2014,10,07,14,10,18.70
2014,10,07,14,11,18.70
2014,10,07,14,12,18.70
2014,10,07,14,13,18.70
2014,10,07,14,14,18.70
2014,10,07,14,15,18.70
2014,10,07,14,16,18.70
2014,10,07,14,17,18.60
2014,10,07,14,18,18.60
2014,10,07,14,19,18.60
2014,10,07,14,20,18.60
2014,10,07,14,21,18.50
2014,10,07,14,22,18.50
2014,10,07,14,23,18.50
2014,10,07,14,24,18.40
2014,10,07,14,25,18.40
2014,10,07,14,26,18.40
2014,10,07,14,27,18.40
2014,10,07,14,28,18.40
2014,10,07,14,29,18.40
2014,10,07,14,30,18.40
2014,10,07,14,31,18.40
2014,10,07,14,32,18.40
2014,10,07,14,33,18.40
2014,10,07,14,34,18.40
2014,10,07,14,35,18.40
2014,10,07,14,36,18.40
2014,10,07,14,37,18.30
2014,10,07,14,38,18.30
2014,10,07,14,39,18.40
2014,10,07,14,40,18.40
2014,10,07,14,41,18.40
2014,10,07,14,42,18.40
2014,10,07,14,43,18.40
2014,10,07,14,44,18.40
2014,10,07,14,45,18.40
2014,10,07,14,46,18.40
2014,10,07,14,47,18.50
2014,10,07,14,48,18.50
2014,10,07,14,49,18.40
2014,10,07,14,50,18.40
2014,10,07,14,51,18.40
2014,10,07,14,52,18.40
2014,10,07,14,53,18.50
2014,10,07,14,54,18.50
2014,10,07,14,55,18.50
2014,10,07,14,56,18.50
2014,10,07,14,57,18.50
2014,10,07,14,58,18.50
2014,10,07,14,59,18.50
2014,10,07,15,00,18.50
2014,10,07,15,01,18.40
2014,10,07,15,02,18.40
2014,10,07,15,03,18.40
2014,10,07,15,04,18.40
2014,10,07,15,05,18.40
2014,10,07,15,06,18.40
2014,10,07,15,07,18.40
2014,10,07,15,08,18.40
2014,10,07,15,09,18.30
2014,10,07,15,10,18.30
2014,10,07,15,11,18.30
2014,10,07,15,12,18.20
2014,10,07,15,13,18.20
2014,10,07,15,14,18.20
2014,10,07,15,15,18.20
2014,10,07,15,16,18.20
2014,10,07,15,17,18.30
2014,10,07,15,18,18.30
2014,10,07,15,19,18.30
2014,10,07,15,20,18.30
2014,10,07,15,21,18.40
2014,10,07,15,22,18.40
2014,10,07,15,23,18.40
2014,10,07,15,24,18.40
2014,10,07,15,25,18.40
2014,10,07,15,26,18.30
2014,10,07,15,27,18.20
2014,10,07,15,28,18.20
2014,10,07,15,29,18.10
2014,10,07,15,30,18.10
2014,10,07,15,31,18.10
2014,10,07,15,32,18.00
2014,10,07,15,33,18.00
2014,10,07,15,34,18.00
2014,10,07,15,35,18.00
2014,10,07,15,36,18.10
2014,10,07,15,37,18.10
2014,10,07,15,38,18.20
2014,10,07,15,39,18.20
2014,10,07,15,40,18.20
2014,10,07,15,41,18.20
2014,10,07,15,42,18.30
2014,10,07,15,43,18.30
2014,10,07,15,44,18.20
2014,10,07,15,45,18.20
2014,10,07,15,46,18.10
2014,10,07,15,47,18.10
2014,10,07,15,48,18.10
2014,10,07,15,49,18.20
2014,10,07,15,50,18.20
2014,10,07,15,51,18.30
2014,10,07,15,52,18.30
2014,10,07,15,53,18.30
2014,10,07,15,54,18.30
2014,10,07,15,55,18.30
2014,10,07,15,56,18.30
2014,10,07,15,57,18.40
2014,10,07,15,58,18.30
2014,10,07,15,59,18.30
2014,10,07,16,00,18.30
2014,10,07,16,01,18.30
2014,10,07,16,02,18.30
2014,10,07,16,03,18.30
2014,10,07,16,04,18.30
2014,10,07,16,05,18.30
2014,10,07,16,06,18.30
2014,10,07,16,07,18.30
2014,10,07,16,08,18.30
2014,10,07,16,09,18.30
2014,10,07,16,10,18.40
2014,10,07,16,11,18.40
2014,10,07,16,12,18.40
2014,10,07,16,13,18.40
2014,10,07,16,14,18.40
2014,10,07,16,15,18.40
2014,10,07,16,16,18.50
2014,10,07,16,17,18.50
2014,10,07,16,18,18.60
2014,10,07,16,19,18.60
2014,10,07,16,20,18.60
2014,10,07,16,21,18.60
2014,10,07,16,22,18.60
2014,10,07,16,23,18.60
2014,10,07,16,24,18.60
2014,10,07,16,25,18.60
2014,10,07,16,26,18.60
2014,10,07,16,27,18.60
2014,10,07,16,28,18.60
2014,10,07,16,29,18.60
2014,10,07,16,30,18.60
2014,10,07,16,31,18.60
2014,10,07,16,32,18.60
2014,10,07,16,33,18.60
2014,10,07,16,34,18.60
2014,10,07,16,35,18.60
2014,10,07,16,36,18.60
2014,10,07,16,37,18.60
2014,10,07,16,38,18.60
2014,10,07,16,39,18.60
2014,10,07,16,40,18.60
2014,10,07,16,41,18.60
2014,10,07,16,42,18.50
2014,10,07,16,43,18.50
2014,10,07,16,44,18.40
2014,10,07,16,45,18.40
2014,10,07,16,46,18.40
2014,10,07,16,47,18.40
2014,10,07,16,48,18.30
2014,10,07,16,49,18.30
2014,10,07,16,50,18.30
2014,10,07,16,51,18.30
2014,10,07,16,52,18.30
2014,10,07,16,53,18.30
2014,10,07,16,54,18.30
2014,10,07,16,55,18.30
2014,10,07,16,56,18.30
2014,10,07,16,57,18.30
2014,10,07,16,58,18.30
2014,10,07,16,59,18.30
2014,10,07,17,00,18.30
2014,10,07,17,01,18.30
2014,10,07,17,02,18.30
2014,10,07,17,03,18.20
2014,10,07,17,04,18.20
2014,10,07,17,05,18.10
2014,10,07,17,06,18.00
2014,10,07,17,07,17.90
2014,10,07,17,08,17.80
2014,10,07,17,09,17.70
2014,10,07,17,10,17.60
2014,10,07,17,11,17.60
2014,10,07,17,12,17.50
2014,10,07,17,13,17.40
2014,10,07,17,14,17.40
2014,10,07,17,15,17.30
2014,10,07,17,16,17.30
2014,10,07,17,17,17.20
2014,10,07,17,18,17.20
2014,10,07,17,19,17.10